Location: Moscow
(55.7500°N, 37.5830°E)
Time: 17:01:03
(UTC+03:00)

deb Explorer IX - Visible Passes

Search period start: 09 December 2021 00:00
Search period end: 19 December 2021 00:00
Orbit: 545 x 1085 km, 38.8° (Epoch: 08 December)

Date Brightness Start Highest point End Pass type
(mag) Time Alt. Az. Time Alt. Az. Time Alt. Az.
13 Dec ? 07:46:38 10° S 07:48:24 11° S 07:50:07 10° SSE visible
14 Dec ? 07:21:07 10° S 07:23:18 12° S 07:25:22 10° SSE visible
15 Dec ? 06:55:39 10° SSW 06:58:10 13° S 07:00:33 10° SE visible
16 Dec ? 06:30:12 10° SSW 06:33:01 13° SSE 06:35:41 10° SE visible
17 Dec ? 06:04:45 10° SSW 06:07:50 14° SSE 06:10:45 10° SE visible
17 Dec ? 07:50:01 10° SW 07:53:20 15° S 07:56:26 10° SSE visible
18 Dec ? 05:39:19 10° SSW 05:42:38 14° SSE 05:45:46 10° SE visible
18 Dec ? 07:24:34 10° SW 07:28:09 16° S 07:31:30 10° SSE visible
